Location: Newark
(35.6799°N, 139.7636°E)
Time: 19:54:06
(UTC+00:00)

Explorer 11/Cluster Stage 4 - Pass Details

Date: 17 December 2019
Orbit: 467 x 1259 km, 28.8° (Epoch: 23 January)

Event Time Altitude Azimuth Distance (km) Brightness Sun altitude
Rises 21:06:21 0° 232° (SW) 4,135 10.0 -7.8°
Reaches altitude 10° 21:09:28 10° 225° (SW) 3,210 9.5 -7.3°
Maximum altitude 21:16:47 36° 162° (SSE) 1,864 9.0 -5.9°
Drops below altitude 10° 21:23:51 10° 99° (E) 3,103 11.2 -4.6°
Sets 21:26:49 0° 92° (E) 3,983 11.6 -4.1°
